[[{"header":{"parameterUnit":"m.s-1","parameterCategory":1,"la1":30.2991,"la2":30.254,"lo1":-89.0895,"lo2":-89.0444,"dy":0.0017,"dx":0.0017,"nx":28,"ny":28,"refTime":"2024-06-03T09:00:00:Z","depth":0,"parameterNumber":2,"parameterNumberName":"U-component_of_WINDS"},"data":[0,0,0,0,0,0,0,0,0,0,0,0,0,0,0,0,0,0,0,0,0,0,0,0,0,0,0,0,0,0,0,0,0,0,0,0,0,0,0,0,0,0,0,0,0,0,0,0,0,0,0,0,0,0,0,0,0,0,-3.3259,-3.3259,0,-3.3225,-3.3224,-3.3224,-3.313,-3.3128,-3.3126,-3.3124,-3.3091,-3.3092,-3.3093,0,0,0,0,0,0,0,0,0,0,0,0,0,-3.3248,-3.3249,-3.3259,-3.3259,-3.3258,-3.3225,-3.3224,-3.3224,-3.3131,-3.3128,-3.3126,-3.3123,-3.3091,-3.3092,-3.3094,0,0,0,0,0,0,0,0,0,0,0,0,0,-3.3237,-3.3249,-3.3259,-3.3208,-3.3203,-3.3225,-3.3224,-3.3224,-3.3131,-3.3128,-3.3125,-3.3122,-3.3091,-3.3092,-3.3094,-3.3164,0,0,-3.3098,-3.3099,0,0,0,0,0,0,0,0,-3.3238,-3.3238,-3.3216,-3.3211,-3.3206,-3.3179,-3.3208,-3.3204,-3.3132,-3.3158,-3.3124,-3.3121,-3.3123,-3.3122,-3.3122,-3.3162,-3.3161,-3.3098,-3.3099,-3.31,-3.31,0,0,0,0,0,0,0,-3.3239,-3.3239,-3.3245,-3.3215,-3.3209,-3.3188,-3.3183,-3.3207,-3.3158,-3.3156,-3.3149,-3.3146,-3.312,-3.3121,-3.3121,-3.316,-3.3098,-3.31,-3.3101,-3.3101,-3.3257,-3.326,0,0,0,0,0,0,-3.3247,-3.324,-3.3246,-3.3244,-3.3215,-3.319,-3.3185,-3.319,-3.3158,-3.315,-3.3149,-3.3142,-3.312,-3.3119,-3.3119,-3.3198,-3.31,-3.3101,-3.3102,-3.3253,-3.3257,-3.3261,0,0,0,0,0,0,-3.3247,-3.3248,-3.3248,-3.324,-3.3239,-3.3194,-3.3201,-3.3191,-3.3192,-3.3152,-3.3143,-3.3158,-3.3117,-3.3117,-3.3153,-3.3195,-3.3102,-3.3103,-3.325,-3.3255,-3.3259,-3.3356,0,0,0,0,0,0,-3.3247,-3.3249,-3.3273,-3.3242,-3.3239,-3.3282,-3.3203,-3.3193,-3.3195,-3.3185,-3.3159,-3.3152,-3.3115,-3.3151,-3.3155,-3.3196,-3.3105,-3.3246,-3.3252,-3.3258,-3.3349,-3.3364,-3.3377,0,0,0,0,0,-3.3247,-3.3303,-3.3275,-3.3276,-3.3269,-3.3284,-3.3283,-3.3239,-3.3198,-3.3223,-3.3198,-3.3152,-3.3191,-3.3156,-3.3159,-3.3201,-3.3243,-3.325,-3.3257,-3.3343,-3.3361,-3.3376,0,0,0,0,0,0,-3.3341,-3.3297,-3.3266,-3.3314,-3.3303,-3.3268,-3.3298,-3.3259,-3.3261,-3.3252,-3.3198,-3.3193,-3.3237,-3.3223,-3.3185,-3.3267,-3.3209,-3.3218,-3.3274,-3.3291,-3.3304,-3.3305,-3.3106,0,0,0,0,0,-3.3367,-3.3382,-3.3344,-3.3389,-3.3386,-3.3344,-3.3348,-3.3315,-3.3303,-3.3298,-3.3275,-3.3266,-3.3275,-3.3283,-3.329,-3.3348,-3.3341,-3.3379,-3.3393,-3.3404,-3.3411,-3.3441,-3.3457,-3.3285,-3.3285,-3.3284,0,0,-3.3421,-3.34,-3.3412,-3.3408,-3.3395,-3.3413,-3.334,-3.3361,-3.3373,-3.3301,-3.3333,-3.3317,-3.3303,-3.3351,-3.337,-3.334,-3.3458,-3.3414,-3.3423,-3.3423,-3.345,-3.3466,-3.3481,-3.329,-3.3289,-3.3288,0,0,-3.3528,-3.3514,-3.3549,-3.354,-3.3522,-3.3495,-3.3504,-3.3475,-3.3461,-3.3493,-3.3439,-3.3455,-3.3473,-3.3465,-3.3463,-3.3571,-3.3528,-3.3575,-3.3645,-3.3675,-3.3689,-3.37,-3.3737,-3.3751,-3.3583,-3.3583,-3.3583,0,-3.3597,-3.362,-3.3573,-3.3598,-3.3597,-3.3534,-3.357,-3.3563,-3.355,-3.3552,-3.3519,-3.3541,-3.3527,-3.3572,-3.3598,-3.36,-3.3608,-3.3576,-3.369,-3.3702,-3.3712,-3.3746,-3.3761,-3.3589,-3.3588,-3.3587,-3.3587,0,-3.3706,-3.3723,-3.3754,-3.3742,-3.3746,-3.3776,-3.3735,-3.3746,-3.3714,-3.369,-3.3724,-3.3706,-3.3708,-3.3717,-3.3686,-3.3758,-3.374,-3.37,-3.364,-3.3735,-3.3766,-3.3779,-3.3597,-3.3595,-3.3593,-3.3592,0,0,-3.3866,-3.383,-3.3842,-3.3836,-3.3814,-3.3827,-3.3856,-3.3858,-3.3867,-3.3862,-3.3884,-3.3903,-3.3866,-3.3864,-3.3833,-3.386,-3.3945,-3.3816,-3.3815,-3.3839,-3.4021,-3.4049,-3.4065,-3.3918,-3.3921,-3.3923,-3.4022,0,-3.3965,-3.401,-3.397,-3.4024,-3.4039,-3.3981,-3.4006,-3.3996,-3.3976,-3.3987,-3.3965,-3.3978,-3.3929,-3.3928,-3.3952,-3.3929,-3.398,-3.3922,-3.3938,-3.3939,-3.394,-3.4082,-3.4111,-3.4205,-3.4034,-3.4036,-3.4038,0,-3.4085,-3.4084,-3.4139,-3.4114,-3.4119,-3.4142,-3.4141,-3.4153,-3.4142,-3.4125,-3.4125,-3.4087,-3.4115,-3.406,-3.4097,-3.4059,-3.4064,-3.4054,-3.4057,-3.4054,-3.3992,-3.408,-3.4235,-3.4248,-3.4057,-3.4055,-3.4054,0,-3.4194,-3.4208,-3.4242,-3.4239,-3.4212,-3.423,-3.4219,-3.4205,-3.4209,-3.421,-3.4212,-3.4216,-3.4218,-3.4223,-3.4187,-3.415,-3.423,-3.4171,-3.4216,-3.4217,-3.4232,-3.4231,-3.4386,-3.4241,-3.4241,-3.4241,-3.424,0,-3.4307,-3.4342,-3.429,-3.4311,-3.4349,-3.4305,-3.4345,-3.4329,-3.4317,-3.4335,-3.4287,-3.4304,-3.4258,-3.4272,-3.4245,-3.428,-3.4282,-3.4269,-3.4261,-3.4271,-3.4273,-3.4271,-3.4263,-3.4244,-3.4243,-3.4243,-3.4242,0,-3.4433,-3.44,-3.4433,-3.4406,-3.44,-3.4429,-3.4406,-3.4425,-3.4403,-3.4426,-3.4429,-3.4395,-3.4408,-3.4374,-3.4383,-3.4365,-3.4415,-3.4398,-3.4418,-3.4412,-3.4458,-3.4453,-3.4615,-3.4634,-3.4479,-3.4481,-3.4482,0,-3.4505,-3.4531,-3.4507,-3.4514,-3.4507,-3.4521,-3.4524,-3.4484,-3.449,-3.4481,-3.4501,-3.451,-3.4515,-3.454,-3.4516,-3.4523,-3.4504,-3.4561,-3.4504,-3.4515,-3.4502,-3.45,-3.4502,-3.4571,-3.4573,-3.4575,-3.4576,0,-3.4636,-3.4619,-3.4626,-3.4629,-3.4635,-3.4635,-3.4631,-3.4641,-3.4598,-3.4608,-3.4621,-3.4625,-3.4634,-3.4644,-3.4646,-3.4637,-3.4599,-3.4595,-3.4605,-3.4614,-3.4624,-3.4617,-3.4446,-3.459,-3.4588,-3.4587,-3.4587,-3.4586,-3.4736,-3.4756,-3.4742,-3.4752,-3.4746,-3.4744,-3.476,-3.4741,-3.4751,-3.4754,-3.4731,-3.4749,-3.4739,-3.4738,-3.4733,-3.4747,-3.4721,-3.4737,-3.474,-3.4744,-3.475,-3.4625,-3.4748,-3.4747,-3.4747,-3.4747,-3.4746,0,-3.4862,-3.4851,-3.4861,-3.4858,-3.4866,-3.4832,-3.4827,-3.4836,-3.4852,-3.4846,-3.4853,-3.4868,-3.4879,-3.4857,-3.4864,-3.488,-3.4863,-3.4883,-3.4879,-3.4878,-3.4774,-3.4763,-3.4896,-3.4896,-3.4896,-3.4896,-3.4896,-3.4896,-3.4929,-3.496,-3.4943,-3.4972,-3.4961,-3.4977,-3.4978,-3.4977,-3.4971,-3.499,-3.4998,-3.4985,-3.4973,-3.4979,-3.4987,-3.498,-3.4984,-3.501,-3.4997,-3.49,-3.4885,-3.4871,-3.486,-3.5012,-3.5012,-3.5099,-3.51,-3.5101]},{"header":{"parameterUnit":"m.s-1","parameterCategory":1,"la1":30.2991,"la2":30.254,"lo1":-89.0895,"lo2":-89.0444,"dy":0.0017,"dx":0.0017,"nx":28,"ny":28,"refTime":"2024-06-03T09:00:00:Z","depth":0,"parameterNumber":3,"parameterNumberName":"V-component_of_WINDS"},"data":[0,0,0,0,0,0,0,0,0,0,0,0,0,0,0,0,0,0,0,0,0,0,0,0,0,0,0,0,0,0,0,0,0,0,0,0,0,0,0,0,0,0,0,0,0,0,0,0,0,0,0,0,0,0,0,0,0,0,3.8663,3.8664,0,3.8736,3.8737,3.8738,3.878,3.878,3.8781,3.8781,3.8853,3.8855,3.8856,0,0,0,0,0,0,0,0,0,0,0,0,0,3.8557,3.8559,3.8663,3.8664,3.8665,3.8736,3.8737,3.8738,3.878,3.878,3.8781,3.8781,3.8852,3.8854,3.8857,0,0,0,0,0,0,0,0,0,0,0,0,0,3.8614,3.856,3.8663,3.8694,3.8698,3.8736,3.8737,3.8738,3.878,3.878,3.8781,3.8781,3.8852,3.8854,3.8857,3.8868,0,0,3.8865,3.8866,0,0,0,0,0,0,0,0,3.8611,3.8618,3.8689,3.8692,3.8696,3.8749,3.8726,3.8782,3.878,3.8749,3.8781,3.8781,3.8818,3.8823,3.8837,3.8871,3.8874,3.8865,3.8867,3.8868,3.8869,0,0,0,0,0,0,0,3.8607,3.8615,3.8692,3.869,3.8694,3.8704,3.8713,3.8737,3.8781,3.8752,3.8755,3.8763,3.882,3.8834,3.8839,3.8875,3.8865,3.8867,3.8869,3.887,3.8923,3.8923,0,0,0,0,0,0,3.8598,3.8611,3.8689,3.8694,3.8653,3.8706,3.8715,3.8732,3.8781,3.8789,3.8763,3.8765,3.8829,3.8835,3.8841,3.8858,3.8868,3.887,3.8872,3.8923,3.8923,3.8923,0,0,0,0,0,0,3.8596,3.8605,3.8687,3.8654,3.8665,3.8708,3.8726,3.8733,3.8747,3.8789,3.8797,3.8769,3.883,3.8838,3.8861,3.8861,3.8871,3.8874,3.8923,3.8923,3.8923,3.8891,0,0,0,0,0,0,3.8593,3.8604,3.8609,3.8654,3.8666,3.8706,3.8726,3.8735,3.8752,3.8755,3.8797,3.8804,3.8831,3.8857,3.8864,3.8865,3.8876,3.8924,3.8923,3.8923,3.8892,3.8889,3.8887,0,0,0,0,0,3.8589,3.8596,3.8609,3.8618,3.8674,3.8706,3.8713,3.8744,3.8752,3.8757,3.8784,3.8803,3.886,3.8859,3.8867,3.8869,3.8924,3.8923,3.8923,3.8893,3.889,3.8887,0,0,0,0,0,0,3.8549,3.8603,3.8617,3.864,3.8668,3.8713,3.8721,3.8739,3.8765,3.8767,3.8804,3.8813,3.8833,3.8853,3.8851,3.8882,3.8894,3.8895,3.8868,3.8866,3.8863,3.8858,3.8878,0,0,0,0,0,3.8543,3.8566,3.8611,3.8626,3.8639,3.8677,3.8692,3.8714,3.8744,3.8756,3.8785,3.8813,3.8837,3.8853,3.8877,3.8895,3.8905,3.89,3.8897,3.8895,3.8896,3.8907,3.8905,3.8922,3.8922,3.8922,0,0,3.8531,3.8563,3.8574,3.8619,3.8643,3.8665,3.8687,3.8709,3.8725,3.8759,3.8784,3.8806,3.8839,3.886,3.8871,3.8878,3.8894,3.8895,3.8893,3.8895,3.8906,3.8905,3.8903,3.8921,3.8921,3.8921,0,0,3.852,3.8546,3.8562,3.8586,3.8624,3.8649,3.8652,3.8695,3.8711,3.8736,3.8763,3.8782,3.8823,3.8846,3.8863,3.886,3.8879,3.8867,3.8855,3.8865,3.8864,3.8863,3.8862,3.8861,3.8868,3.8868,3.8868,0,3.8499,3.8534,3.8567,3.8588,3.8607,3.8639,3.8656,3.8677,3.872,3.8732,3.8739,3.8792,3.8816,3.8843,3.8843,3.8855,3.886,3.8863,3.8861,3.8861,3.886,3.886,3.886,3.8866,3.8866,3.8866,3.8867,0,3.8507,3.8531,3.8539,3.8581,3.86,3.8618,3.8654,3.8669,3.8689,3.8713,3.8738,3.8769,3.8801,3.8809,3.8828,3.8838,3.8842,3.8855,3.8867,3.8857,3.8857,3.8857,3.8864,3.8864,3.8865,3.8865,0,0,3.8473,3.8534,3.8536,3.8556,3.8599,3.8618,3.8637,3.8669,3.8681,3.871,3.8727,3.8761,3.8773,3.8792,3.8814,3.8823,3.882,3.8835,3.8837,3.8831,3.8833,3.8823,3.8823,3.8832,3.8832,3.8832,3.883,0,3.8469,3.8506,3.8537,3.8563,3.8585,3.8616,3.8633,3.8661,3.8684,3.8705,3.873,3.8754,3.8769,3.8781,3.8791,3.8818,3.882,3.8818,3.8847,3.8848,3.8838,3.8823,3.8813,3.881,3.8831,3.8831,3.8831,0,3.8468,3.8496,3.8525,3.8566,3.8577,3.8591,3.8623,3.8643,3.8676,3.8692,3.8713,3.8736,3.8758,3.8768,3.8797,3.8795,3.8809,3.8824,3.8824,3.8828,3.8839,3.8827,3.881,3.8809,3.8831,3.8831,3.8831,0,3.8441,3.8486,3.8509,3.8524,3.8573,3.8583,3.8604,3.8636,3.8654,3.8681,3.8693,3.8721,3.8737,3.8759,3.8789,3.8793,3.8815,3.8828,3.8829,3.8828,3.8832,3.8831,3.8817,3.884,3.884,3.884,3.884,0,3.8433,3.8449,3.8497,3.8511,3.853,3.8565,3.8582,3.8605,3.8634,3.8653,3.8681,3.8698,3.8736,3.8757,3.878,3.8801,3.8808,3.8821,3.8827,3.8819,3.8817,3.8829,3.883,3.884,3.884,3.884,3.884,0,3.8405,3.8439,3.8466,3.851,3.8522,3.8534,3.8571,3.8586,3.861,3.8634,3.8641,3.8679,3.8706,3.8738,3.8774,3.8789,3.8808,3.8817,3.8797,3.8801,3.88,3.88,3.8793,3.8794,3.8816,3.8815,3.8815,0,3.8398,3.8411,3.8458,3.8473,3.8493,3.8516,3.8534,3.8569,3.8586,3.8624,3.8634,3.8663,3.8688,3.8728,3.8758,3.8786,3.8796,3.8792,3.88,3.8792,3.8796,3.8795,3.8797,3.8789,3.8789,3.8789,3.8788,0,3.8382,3.8398,3.8423,3.8454,3.8475,3.8501,3.8529,3.8539,3.8579,3.8597,3.8625,3.8644,3.8681,3.8709,3.8741,3.8761,3.8781,3.8785,3.8787,3.8779,3.8767,3.8774,3.8791,3.8785,3.8786,3.8786,3.8786,3.8786,3.8365,3.8378,3.8413,3.844,3.8464,3.8489,3.8505,3.8532,3.8556,3.859,3.8609,3.8636,3.8668,3.8713,3.8732,3.8754,3.8761,3.8763,3.8764,3.8764,3.8762,3.8764,3.8759,3.876,3.876,3.876,3.876,0,3.835,3.8374,3.8399,3.8437,3.8458,3.8476,3.8507,3.8523,3.8547,3.8576,3.86,3.8632,3.8659,3.8692,3.8721,3.8732,3.8741,3.8738,3.8738,3.8742,3.8753,3.8749,3.873,3.873,3.873,3.873,3.873,3.873,3.8345,3.8369,3.8389,3.8425,3.8448,3.8476,3.8492,3.8515,3.8538,3.8573,3.8596,3.8617,3.8648,3.8679,3.8705,3.8714,3.8723,3.8717,3.8729,3.8739,3.8741,3.8744,3.874,3.8719,3.8719,3.8716,3.8716,3.8716]}]]